| time (UTC) | temp C | wind direction | speed KPH | gust KPH | rain 1hr cm | rain 24hr cm | rain mn cm | humidity % | barometer mb |
| 20260503004838 | 11 | 165 | 0.0 | 0.0 | 0.00 | 1.04 | 1.04 | 90 | 1014.2 |
| 20260503003347 | 11 | 165 | 0.0 | 1.6 | 0.00 | 1.04 | 1.04 | 90 | 1014.1 |
| 20260503001830 | 11 | 165 | 0.0 | 0.0 | 0.00 | 1.04 | 1.04 | 90 | 1013.8 |
| 20260503000348 | 11 | 165 | 0.0 | 0.0 | 0.00 | 1.04 | 1.04 | 90 | 1013.5 |
| 20260502234846 | 11 | 165 | 0.0 | 1.6 | 0.00 | 1.04 | 1.04 | 90 | 1013.4 |
| 20260502233338 | 11 | 127 | 0.0 | 1.6 | 0.03 | 1.04 | 1.04 | 90 | 1013.4 |
| 20260502231828 | 12 | 127 | 0.0 | 0.0 | 0.03 | 1.04 | 1.04 | 90 | 1013.1 |
| 20260502230344 | 12 | 127 | 0.0 | 0.0 | 0.03 | 1.04 | 1.04 | 90 | 1013.2 |
| 20260502224829 | 12 | 127 | 0.0 | 0.0 | 0.03 | 1.04 | 1.04 | 90 | 1013.1 |
| 20260502223329 | 12 | 94 | 0.0 | 1.6 | 0.00 | 1.02 | 1.02 | 90 | 1013.1 |
| 20260502221845 | 12 | 94 | 0.0 | 3.2 | 0.00 | 1.02 | 1.02 | 90 | 1013.0 |
| 20260502220347 | 11 | 93 | 1.6 | 4.8 | 0.00 | 1.02 | 1.02 | 90 | 1013.0 |
| 20260502214823 | 11 | 350 | 0.0 | 1.6 | 0.00 | 1.02 | 1.02 | 90 | 1012.8 |
| 20260502213410 | 11 | 279 | 1.6 | 4.8 | 0.00 | 1.02 | 1.02 | 90 | 1012.9 |
| 20260502211839 | 11 | 344 | 3.2 | 6.4 | 0.00 | 1.02 | 1.02 | 90 | 1013.1 |
| 20260502210331 | 11 | 71 | 3.2 | 8.0 | 0.00 | 1.02 | 1.02 | 90 | 1012.9 |
| 20260502204829 | 11 | 80 | 3.2 | 9.7 | 0.00 | 1.02 | 1.02 | 89 | 1013.0 |
| 20260502203348 | 11 | 48 | 3.2 | 4.8 | 0.00 | 1.02 | 1.02 | 90 | 1013.0 |
| 20260502201847 | 11 | 119 | 1.6 | 6.4 | 0.03 | 1.02 | 1.02 | 90 | 1012.9 |
| 20260502200339 | 11 | 79 | 4.8 | 9.7 | 0.03 | 1.02 | 1.02 | 90 | 1013.1 |
| 20260502194831 | 11 | 70 | 3.2 | 9.7 | 0.03 | 1.02 | 1.02 | 90 | 1013.3 |
| 20260502193345 | 11 | 83 | 3.2 | 8.0 | 0.03 | 1.02 | 1.02 | 91 | 1013.3 |
| 20260502191846 | 11 | 34 | 3.2 | 6.4 | 0.03 | 0.99 | 0.99 | 90 | 1013.6 |
| 20260502190351 | 11 | 31 | 4.8 | 9.7 | 0.03 | 0.99 | 0.99 | 90 | 1013.6 |
| 20260502184855 | 11 | 55 | 4.8 | 14.5 | 0.05 | 1.07 | 0.99 | 90 | 1013.7 |
| 20260502183329 | 11 | 53 | 6.4 | 14.5 | 0.08 | 1.07 | 0.99 | 90 | 1013.7 |
| 20260502181828 | 11 | 65 | 4.8 | 9.7 | 0.05 | 1.04 | 0.97 | 90 | 1014.4 |
| 20260502180345 | 11 | 62 | 1.6 | 16.1 | 0.05 | 1.04 | 0.97 | 90 | 1013.8 |
| 20260502170329 | 11 | 14 | 4.8 | 16.1 | 0.18 | 0.99 | 0.91 | 90 | 1013.9 |
| 20260502163407 | 11 | 19 | 6.4 | 16.1 | 0.15 | 0.94 | 0.86 | 90 | 1015.0 |
| 20260502161857 | 11 | 67 | 1.6 | 6.4 | 0.10 | 0.86 | 0.79 | 90 | 1015.2 |
| 20260502160351 | 11 | 47 | 3.2 | 9.7 | 0.08 | 0.81 | 0.74 | 90 | 1015.2 |
| 20260502151849 | 11 | 73 | 8.0 | 14.5 | 0.15 | 0.76 | 0.69 | 90 | 1014.9 |
| 20260502150333 | 11 | 46 | 4.8 | 14.5 | 0.18 | 0.74 | 0.66 | 90 | 1015.3 |
| 20260502130329 | 11 | 22 | 1.6 | 8.0 | 0.13 | 0.46 | 0.38 | 89 | 1013.9 |
| 20260502123331 | 11 | 76 | 4.8 | 9.7 | 0.18 | 0.43 | 0.36 | 89 | 1013.4 |
| 20260502121830 | 11 | 334 | 1.6 | 8.0 | 0.18 | 0.38 | 0.30 | 90 | 1013.4 |
| 20260502120350 | 11 | 10 | 1.6 | 8.0 | 0.18 | 0.33 | 0.25 | 90 | 1013.1 |
| 20260502114834 | 11 | 295 | 3.2 | 12.9 | 0.18 | 0.30 | 0.23 | 90 | 1013.1 |
| 20260502113325 | 11 | 355 | 4.8 | 8.0 | 0.15 | 0.25 | 0.18 | 90 | 1013.5 |